TimeEST,TemperatureF,Dew PointF,Humidity,Sea Level PressureIn,VisibilityMPH,Wind Direction,Wind SpeedMPH,Gust SpeedMPH,PrecipitationIn,Events,Conditions,WindDirDegrees,DateUTC
12:53 AM,24.1,10.0,55,30.16,10.0,West,6.9,-,N/A,,Clear,260,2013-02-17 05:53:00
1:53 AM,21.0,9.0,60,30.18,10.0,SW,5.8,-,N/A,,Partly Cloudy,230,2013-02-17 06:53:00
2:53 AM,23.0,9.0,55,30.18,10.0,WSW,3.5,-,N/A,,Partly Cloudy,240,2013-02-17 07:53:00
3:53 AM,21.0,9.0,60,30.18,10.0,South,4.6,-,N/A,,Partly Cloudy,190,2013-02-17 08:53:00
4:53 AM,21.0,10.0,63,30.19,10.0,Calm,Calm,-,N/A,,Partly Cloudy,0,2013-02-17 09:53:00
5:53 AM,21.0,10.0,63,30.21,10.0,South,5.8,-,N/A,,Partly Cloudy,170,2013-02-17 10:53:00
6:53 AM,19.9,10.0,65,30.23,10.0,SSW,4.6,-,N/A,,Partly Cloudy,210,2013-02-17 11:53:00
7:53 AM,21.0,12.0,68,30.25,10.0,SSW,6.9,-,N/A,,Partly Cloudy,210,2013-02-17 12:53:00
8:53 AM,26.1,15.1,63,30.27,10.0,SW,8.1,-,N/A,,Partly Cloudy,220,2013-02-17 13:53:00
9:53 AM,30.0,14.0,51,30.28,10.0,SW,8.1,-,N/A,,Partly Cloudy,220,2013-02-17 14:53:00
10:53 AM,32.0,12.0,44,30.29,10.0,WNW,4.6,-,N/A,,Partly Cloudy,290,2013-02-17 15:53:00
11:53 AM,34.0,12.0,40,30.29,10.0,WSW,10.4,18.4,N/A,,Partly Cloudy,250,2013-02-17 16:53:00
12:53 PM,36.0,10.0,34,30.26,10.0,Variable,3.5,-,N/A,,Partly Cloudy,0,2013-02-17 17:53:00
1:53 PM,39.0,10.9,32,30.24,10.0,WSW,5.8,17.3,N/A,,Partly Cloudy,250,2013-02-17 18:53:00
2:53 PM,41.0,8.1,26,30.22,10.0,West,15.0,23.0,N/A,,Partly Cloudy,280,2013-02-17 19:53:00
3:53 PM,41.0,7.0,25,30.22,10.0,Variable,4.6,-,N/A,,Partly Cloudy,0,2013-02-17 20:53:00
4:53 PM,42.1,7.0,24,30.22,10.0,West,9.2,-,N/A,,Clear,280,2013-02-17 21:53:00
5:53 PM,39.9,7.0,26,30.22,10.0,West,10.4,-,N/A,,Clear,260,2013-02-17 22:53:00
6:53 PM,37.4,8.6,30,30.21,10.0,SSW,4.6,-,N/A,,Clear,210,2013-02-17 23:53:00
7:53 PM,36.0,9.0,33,30.24,10.0,South,3.5,-,N/A,,Clear,190,2013-02-18 00:53:00
8:53 PM,35.1,9.0,34,30.25,10.0,South,3.5,-,N/A,,Clear,190,2013-02-18 01:53:00
9:53 PM,32.0,10.9,42,30.26,10.0,Calm,Calm,-,N/A,,Clear,0,2013-02-18 02:53:00
10:53 PM,30.0,12.9,49,30.26,10.0,Calm,Calm,-,N/A,,Clear,0,2013-02-18 03:53:00